TimeCST,TemperatureF,Dew PointF,Humidity,Sea Level PressureIn,VisibilityMPH,Wind Direction,Wind SpeedMPH,Gust SpeedMPH,PrecipitationIn,Events,Conditions,WindDirDegrees,DateUTC
12:55 AM,64.0,58.5,82,30.08,10.0,Calm,Calm,-,N/A,,Scattered Clouds,0,2012-11-04 05:55:00
1:55 AM,63.9,59.4,85,30.05,10.0,Calm,Calm,-,N/A,,Partly Cloudy,0,2012-11-04 06:55:00
1:55 AM,62.6,58.5,86,30.06,10.0,SSE,4.6,-,N/A,,Clear,150,2012-11-04 07:55:00
2:55 AM,60.6,58.5,93,30.07,10.0,Calm,Calm,-,N/A,,Mostly Cloudy,0,2012-11-04 08:55:00
3:55 AM,60.1,58.8,96,30.07,10.0,Calm,Calm,-,N/A,,Clear,0,2012-11-04 09:55:00
4:55 AM,60.6,58.5,93,30.10,10.0,ENE,8.1,-,N/A,,Clear,60,2012-11-04 10:55:00
5:12 AM,60.8,59.0,94,30.10,10.0,NE,8.1,-,N/A,,Mostly Cloudy,50,2012-11-04 11:12:00
5:55 AM,60.6,58.5,93,30.12,10.0,NE,8.1,-,N/A,,Overcast,50,2012-11-04 11:55:00
6:25 AM,60.8,57.2,88,30.12,10.0,NE,8.1,-,N/A,,Overcast,40,2012-11-04 12:25:00
6:31 AM,60.8,57.2,88,30.12,10.0,NE,8.1,-,N/A,,Overcast,40,2012-11-04 12:31:00
6:55 AM,59.9,56.3,88,30.12,10.0,NE,5.8,-,N/A,,Overcast,40,2012-11-04 12:55:00
7:55 AM,59.2,54.0,83,30.14,10.0,NE,6.9,-,N/A,,Mostly Cloudy,50,2012-11-04 13:55:00
8:55 AM,59.2,53.1,80,30.15,10.0,ENE,6.9,-,N/A,,Mostly Cloudy,70,2012-11-04 14:55:00
9:55 AM,60.4,54.7,81,30.17,10.0,Variable,6.9,-,N/A,,Mostly Cloudy,0,2012-11-04 15:55:00
10:55 AM,63.9,56.5,77,30.15,10.0,SE,5.8,-,N/A,,Mostly Cloudy,140,2012-11-04 16:55:00
11:13 AM,66.2,57.2,73,30.15,10.0,Variable,3.5,-,N/A,,Mostly Cloudy,0,2012-11-04 17:13:00
11:55 AM,67.3,57.4,70,30.12,10.0,Variable,5.8,-,N/A,,Scattered Clouds,0,2012-11-04 17:55:00
12:32 PM,69.8,57.2,64,30.11,10.0,Variable,2.3,-,N/A,,Mostly Cloudy,0,2012-11-04 18:32:00
12:55 PM,69.8,57.9,66,30.11,10.0,NE,8.1,-,N/A,,Overcast,40,2012-11-04 18:55:00
1:55 PM,62.6,53.8,73,30.10,10.0,NE,6.9,-,N/A,,Overcast,50,2012-11-04 19:55:00
2:55 PM,65.1,54.1,68,30.09,10.0,Variable,4.6,-,N/A,,Overcast,0,2012-11-04 20:55:00
3:55 PM,64.4,53.8,68,30.09,10.0,Variable,6.9,-,N/A,,Overcast,0,2012-11-04 21:55:00
4:55 PM,63.5,54.0,71,30.08,10.0,Calm,Calm,-,N/A,,Overcast,0,2012-11-04 22:55:00
5:34 PM,62.6,53.6,72,30.09,10.0,NNE,3.5,-,N/A,,Overcast,30,2012-11-04 23:34:00
5:55 PM,62.1,53.8,74,30.09,10.0,Calm,Calm,-,N/A,,Mostly Cloudy,0,2012-11-04 23:55:00
6:55 PM,60.8,53.6,77,30.11,10.0,ENE,4.6,-,N/A,,Overcast,60,2012-11-05 00:55:00
7:55 PM,59.9,52.5,77,30.12,10.0,Calm,Calm,-,N/A,,Overcast,0,2012-11-05 01:55:00
8:55 PM,58.1,51.8,80,30.12,10.0,ESE,3.5,-,N/A,,Mostly Cloudy,110,2012-11-05 02:55:00
9:55 PM,55.8,51.1,84,30.12,10.0,Calm,Calm,-,N/A,,Partly Cloudy,0,2012-11-05 03:55:00
10:55 PM,56.1,51.3,84,30.11,10.0,Calm,Calm,-,N/A,,Overcast,0,2012-11-05 04:55:00